CAPE
0 0 0 0 0 0 0 0 0 0 0 0 0 0 0 0 0 0 0 0 0 0 0 0 0 0 0 0 0 0 0 0 0 0 0 0 0 0 0 1 1 0 0 0
0 0 0 0 0 0 0 0 0 0 0 0 0 0 0 0 0 0 0 0 0 0 0 0 0 0 0 0 0 0 0 0 0 0 0 0 0 0 0 6 0 0 0 0
0 0 0 0 0 0 0 0 0 0 0 0 0 0 0 0 0 0 0 0 0 0 0 0 0 0 0 0 0 0 0 0 0 0 0 0 0 0 0 0 0 0 0 0
0 0 0 0 0 0 0 0 0 0 0 0 0 0 0 0 0 0 0 0 0 0 0 0 0 0 0 0 0 0 0 0 0 0 0 0 0 0 0 0 0 0 0 0
0 0 0 0 0 0 0 0 0 0 0 0 0 0 0 0 0 0 0 0 0 0 0 0 0 0 0 0 0 0 0 0 0 0 0 0 1 0 0 0 0 0 0 0
0 0 0 0 0 0 0 0 0 0 0 0 0 0 0 0 0 0 0 0 0 0 0 0 0 0 0 0 0 0 0 0 0 0 0 0 0 0 0 0 0 0 0 0
0 0 0 0 0 0 0 0 0 0 0 0 0 0 0 0 0 0 0 0 0 0 0 0 0 0 0 0 0 0 0 0 0 0 0 0 0 0 0 0 0 0 0 0
0 0 0 0 0 0 0 0 0 0 0 0 0 0 0 0 0 0 0 0 0 0 0 0 0 0 0 0 0 0 0 0 0 0 0 0 0 0 0 0 0 0 0 0
0 0 0 0 0 0 0 0 0 0 0 0 0 0 0 0 0 0 0 0 0 0 0 0 0 0 0 0 0 0 0 0 0 0 0 0 0 0 0 0 0 0 0 0
0 0 0 0 0 0 0 0 0 0 0 0 0 0 0 0 0 0 0 0 0 0 0 0 0 0 0 0 0 0 0 0 0 0 0 0 0 0 0 0 0 0 0 0
0 0 0 0 0 0 0 0 0 0 0 0 0 0 0 0 0 0 0 0 0 0 0 0 0 0 0 0 0 0 0 0 0 0 0 0 0 0 0 0 0 0 0 0
0 0 0 0 0 0 0 0 0 0 0 0 0 0 0 0 0 0 0 0 0 0 0 0 0 0 0 0 0 0 0 0 0 0 0 0 0 0 0 0 0 0 0 0
0 0 0 0 0 0 0 0 0 0 0 0 0 0 0 0 0 0 0 0 0 0 0 0 0 0 0 0 0 0 0 0 0 0 0 0 0 0 0 0 0 0 0 0
0 0 0 0 0 0 0 0 0 0 0 0 0 0 0 0 0 0 0 0 0 0 0 0 0 0 0 0 0 0 0 0 0 0 0 0 0 0 0 0 0 0 0 0
0 0 0 0 0 0 0 0 0 0 0 0 0 0 0 0 0 0 0 0 0 0 0 0 0 0 0 0 0 0 0 0 0 0 0 0 0 0 0 0 0 0 0 0
0 0 0 0 0 0 0 0 0 0 0 0 0 0 0 0 0 0 0 0 0 0 0 0 0 0 0 0 0 0 0 0 0 0 0 0 0 0 0 1 0 0 0 0
0 0 0 0 0 0 0 0 0 0 0 0 0 0 0 0 0 0 0 0 0 0 0 0 0 0 0 0 0 0 0 0 0 0 0 0 0 0 0 1 0 0 0 0
0 0 0 0 0 0 0 0 0 0 0 0 0 0 0 0 0 0 0 0 0 0 0 0 0 0 0 0 0 0 0 0 0 0 0 0 0 0 0 0 0 0 0 0
0 0 0 0 0 0 0 0 0 0 0 0 0 0 0 0 0 0 0 0 0 0 0 0 0 0 0 0 0 0 0 0 0 0 0 0 0 0 0 0 0 0 0 0
0 0 0 0 0 0 0 0 0 0 0 0 0 0 0 0 0 0 0 0 0 0 0 0 0 0 0 0 0 0 0 0 0 0 0 0 0 0 0 0 0 0 0 0
0 0 0 0 0 0 0 0 0 0 0 0 0 0 0 0 0 0 0 0 0 0 0 0 0 0 0 0 1 0 0 0 0 0 0 0 0 0 0 0 0 0 0 0
0 0 0 0 0 0 0 0 0 0 0 0 0 0 0 0 0 0 0 0 0 0 0 0 0 0 1 3 2 1 0 0 0 0 0 0 0 0 0 0 0 0 0 0
0 0 0 0 0 0 0 0 0 0 0 0 0 0 0 0 0 0 0 0 0 0 0 0 0 0 0 0 0 0 1 0 0 0 0 0 0 0 0 0 0 0 0 0
0 0 0 0 0 0 0 0 0 0 0 0 0 0 0 0 0 0 0 0 0 0 0 0 0 0 0 0 1 3 0 0 0 0 0 0 0 0 0 0 0 0 0 0
0 0 0 0 0 0 0 0 0 0 0 0 0 0 0 0 0 0 0 0 0 0 0 0 0 1 0 0 0 3 0 1 3 3 0 0 0 0 0 0 0 0 0 0
0 0 0 0 0 0 0 0 0 0 0 0 0 0 0 0 0 0 0 0 0 0 0 0 0 0 0 1 0 1 0 1 7 7 2 0 0 0 0 0 0 0 0 0
0 0 0 0 0 0 0 0 0 0 0 0 0 0 0 0 0 0 0 0 0 0 0 0 0 0 0 0 0 0 1 1 1 0 10 2 0 0 0 0 0 0 0 0
CIN
0 0 0 0 0 0 0 0 0 0 0 0 0 0 0 0 0 0 0 0 0 0 0 0 0 0 0 0 0 0 0 0 0 0 0 0 0 0 0 -22 -21 0 0 0
0 0 0 0 0 0 0 0 0 0 0 0 0 0 0 0 0 0 0 0 0 0 0 0 0 0 0 0 0 0 0 0 0 0 0 0 0 0 0 -14 0 0 0 0
0 0 0 0 0 0 0 0 0 0 0 0 0 0 0 0 0 0 0 0 0 0 0 0 0 0 0 0 0 0 0 0 0 0 0 0 0 0 0 0 0 0 0 0
0 0 0 0 0 0 0 0 0 0 0 0 0 0 0 0 0 0 0 0 0 0 0 0 0 0 0 0 0 0 0 0 0 0 0 0 0 0 0 0 0 0 0 0
0 0 0 0 0 0 0 0 0 0 0 0 0 0 0 0 0 0 0 0 0 0 0 0 0 0 0 0 0 0 0 0 0 0 0 0 -5 -1 0 0 0 0 0 0
0 0 0 0 0 0 0 0 0 0 0 0 0 0 0 0 0 0 0 0 0 0 0 0 0 0 0 0 0 0 0 0 0 0 0 0 0 0 0 0 0 0 0 0
0 0 0 0 0 0 0 0 0 0 0 0 0 0 0 0 0 0 0 0 0 0 0 0 0 0 0 0 0 0 0 0 0 0 0 0 0 0 0 0 0 0 0 0
0 0 0 0 0 0 0 0 0 0 0 0 0 0 0 0 0 0 0 0 0 0 0 0 0 0 0 0 0 0 0 0 0 0 0 0 0 0 0 0 0 0 0 0
0 0 0 0 0 0 0 0 0 0 0 0 0 0 0 0 0 0 0 0 0 0 0 0 0 0 0 0 0 0 0 0 0 0 0 0 0 0 0 0 0 0 0 0
0 0 0 0 0 0 0 0 0 0 0 0 0 0 0 0 0 0 0 0 0 0 0 0 0 0 0 0 0 0 0 0 0 0 0 0 0 0 0 0 0 0 0 0
0 0 0 0 0 0 0 0 0 0 0 0 0 0 0 0 0 0 0 0 0 0 0 0 0 0 0 0 0 0 -1 0 0 0 0 0 0 0 0 0 0 0 0 0
0 0 0 0 0 0 0 0 0 0 0 0 0 0 0 0 0 0 0 0 0 0 0 0 0 0 0 0 0 0 0 0 0 0 0 0 0 0 0 0 0 0 0 0
0 0 0 0 0 0 0 0 0 0 0 0 0 0 0 0 0 0 0 0 0 0 0 0 0 0 0 0 0 0 0 0 0 0 0 0 0 0 -1 0 0 0 0 0
0 0 0 0 0 0 0 0 0 0 0 0 0 0 0 0 0 0 0 0 0 0 0 0 0 0 0 0 0 0 0 0 0 0 0 0 0 0 0 0 0 0 0 0
0 0 0 0 0 0 0 0 0 0 0 0 0 0 0 0 0 0 0 0 0 0 0 0 0 0 0 0 0 0 0 0 0 0 0 0 0 0 0 0 0 0 0 0
0 0 0 0 0 0 0 0 0 0 0 0 0 0 0 0 0 0 0 0 0 0 0 -1 0 0 0 0 0 -5 0 0 0 0 0 0 0 0 0 -9 0 0 0 0
0 0 0 0 0 0 0 0 0 0 0 0 0 0 0 0 0 0 0 0 0 0 0 0 0 0 0 0 0 0 0 0 0 0 0 0 0 -12 -15 -13 -12 0 0 0
0 0 0 0 0 0 0 0 0 0 0 0 0 0 0 0 0 0 0 0 0 0 0 0 0 0 0 0 0 0 0 0 0 0 0 0 0 0 0 -8 -2 0 0 0
0 0 0 0 0 0 0 0 0 0 0 0 0 0 0 0 0 0 0 0 0 0 0 0 0 0 0 0 0 0 0 0 0 0 0 0 0 0 0 0 -15 0 0 0
0 0 0 0 0 0 0 0 0 0 0 0 0 0 0 0 0 0 0 0 0 0 0 0 0 0 0 0 0 0 0 0 0 0 0 0 0 0 0 0 0 0 0 0
0 0 0 0 0 0 0 0 0 0 0 0 0 0 0 0 0 0 0 0 0 0 0 0 0 -2 0 -4 -14 0 0 0 0 0 0 0 0 0 0 0 0 0 0 0
0 0 0 0 0 0 0 0 0 0 0 0 0 0 0 0 0 0 0 0 0 0 0 0 0 0 -23 -12 -12 -12 0 0 0 0 0 0 0 0 0 0 0 0 0 0
0 0 0 0 0 0 0 0 0 0 0 0 0 0 0 0 0 0 0 0 0 0 0 0 0 0 0 -3 -6 0 0 0 0 0 0 0 0 0 0 0 0 0 0 0
0 0 0 0 0 0 0 0 0 0 0 0 0 0 0 0 0 0 0 0 0 0 0 0 0 0 0 0 -1 -1 -4 0 0 0 0 0 0 0 0 0 0 0 0 0
0 0 0 0 0 0 0 0 0 0 0 0 0 0 0 0 0 0 0 0 0 0 0 0 0 -1 -1 0 0 0 0 -3 -1 -2 -1 0 0 0 0 0 0 0 0 0
0 0 0 0 0 0 0 0 0 0 0 0 0 0 0 0 0 0 0 0 0 0 0 0 0 -3 -1 0 0 -1 -1 -1 0 0 -4 0 0 0 0 0 0 0 0 0
0 0 0 0 0 0 0 0 0 0 0 0 0 0 0 0 0 0 0 0 0 0 0 0 0 0 0 0 0 0 0 0 0 0 0 -3 0 0 0 0 0 0 0 0
Wind_Speed
12 13 12 10 10 11 10 13 15 20 11 10 4 5 4 4 6 8 12 15 18 19 22 28 28 27 28 30 32 33 36 37 38 38 38 38 40 40 37 34 33 29 25 22
12 16 17 13 12 11 11 14 13 17 17 16 9 8 5 4 7 11 14 17 19 23 26 26 25 27 29 32 34 34 36 37 36 36 38 40 42 40 36 32 27 25 22 21
15 18 18 16 10 8 13 15 15 16 18 11 11 8 6 7 10 13 15 17 21 24 24 22 24 27 31 34 35 36 35 35 35 37 40 42 41 38 34 29 22 20 20 20
17 17 19 18 19 14 15 17 17 20 17 11 11 9 9 9 12 15 17 19 21 22 21 21 25 29 32 35 36 35 35 35 37 39 42 42 39 35 30 22 22 21 19 20
19 18 23 19 16 15 16 20 16 18 16 15 14 15 15 12 14 16 17 19 20 20 21 23 28 32 35 36 35 34 35 36 39 40 41 39 36 31 26 22 22 18 19 21
18 22 25 20 17 15 19 25 15 14 15 15 14 22 20 12 15 16 18 18 20 21 23 28 32 32 33 34 35 36 36 38 38 38 38 36 32 26 23 22 17 18 20 23
18 23 24 19 16 15 22 24 12 14 15 15 17 20 20 14 16 17 18 20 21 24 28 31 31 31 34 34 36 35 35 36 36 35 36 32 28 23 21 18 18 19 22 23
21 24 31 15 14 18 20 19 16 16 15 14 15 17 17 17 17 17 19 21 24 28 31 32 33 33 35 36 35 34 34 34 35 35 33 28 25 21 19 18 19 20 22 23
16 21 22 14 19 17 19 23 21 18 17 14 16 18 17 17 18 19 20 23 25 29 32 33 35 33 35 35 36 37 34 33 33 31 29 25 22 18 18 18 19 20 22 23
25 25 24 22 20 24 23 24 21 18 15 15 16 15 18 17 18 19 22 25 28 31 34 36 36 34 34 35 36 37 33 30 30 29 27 24 20 17 17 18 19 20 22 22
28 30 30 27 24 24 23 21 19 16 14 13 16 18 15 16 18 21 24 28 31 34 35 37 35 35 36 36 34 35 32 29 28 26 24 22 18 17 18 18 17 19 20 20
33 29 28 28 23 20 20 19 15 14 15 17 15 14 15 17 20 24 28 31 33 34 36 36 35 37 36 36 32 34 33 30 26 23 20 18 17 18 18 17 16 16 15 16
30 27 24 27 25 19 16 14 14 14 13 14 15 14 17 20 23 27 30 32 34 36 36 36 37 38 37 35 32 31 32 29 23 22 18 15 16 17 21 18 18 18 19 14
24 24 27 23 23 15 15 15 13 12 14 13 12 15 20 24 26 30 33 34 34 35 36 37 38 37 35 34 32 29 29 25 21 21 18 13 14 14 16 17 17 18 18 17
24 23 25 20 18 15 13 12 12 14 12 12 15 19 23 27 31 33 34 34 34 36 37 38 38 37 34 32 30 28 26 25 21 20 18 11 13 14 14 15 16 16 16 17
24 23 21 18 16 14 12 14 14 12 14 17 20 24 27 29 31 33 33 34 37 39 39 38 37 34 32 29 28 26 24 23 20 19 15 13 14 15 15 13 14 13 14 15
23 22 18 16 14 13 14 11 13 15 18 22 25 27 28 31 33 34 34 34 35 36 36 35 34 31 29 28 28 24 26 22 18 15 12 12 13 14 10 10 11 12 12 13
21 18 16 15 14 11 13 16 17 20 24 26 26 28 31 33 34 34 35 35 35 35 33 31 30 31 29 28 27 24 24 22 15 11 11 12 11 11 10 10 10 10 11 12
19 17 15 14 14 16 17 20 23 25 26 27 29 31 32 32 33 33 34 35 36 37 35 31 30 30 30 30 28 22 23 19 11 8 9 9 9 10 11 12 11 8 9 9
17 16 16 17 18 20 22 23 25 27 29 29 29 32 35 35 33 33 32 33 33 34 33 30 29 29 29 28 26 22 20 17 10 7 7 9 10 11 13 13 12 10 8 9
16 17 19 20 22 23 25 27 28 29 30 31 33 34 35 35 32 31 32 36 33 32 32 30 29 27 27 27 26 21 20 16 11 7 8 9 10 12 13 15 14 13 11 11
21 23 23 24 26 27 28 29 30 32 33 34 34 34 35 35 34 32 30 30 32 32 32 31 29 28 26 26 26 22 20 17 13 10 9 9 11 12 12 13 14 13 12 11
24 25 27 28 29 30 30 31 32 34 36 37 37 36 36 37 36 37 38 29 29 31 32 30 29 29 28 27 25 25 23 22 18 17 15 14 13 13 13 13 13 14 14 13
27 29 29 30 30 31 34 35 36 35 35 35 36 36 37 40 37 31 27 28 30 32 31 29 31 34 33 29 26 26 26 24 24 23 21 19 19 18 17 16 15 14 15 14
29 30 30 32 34 35 35 36 38 38 39 39 38 38 39 36 32 32 30 30 31 31 29 27 31 33 31 31 30 27 27 26 25 23 22 21 20 20 19 17 15 15 14 15
30 31 32 33 35 37 39 40 43 42 41 42 41 40 41 38 33 32 31 30 29 28 27 28 29 31 32 33 34 34 34 30 27 25 24 23 22 21 21 19 16 14 13 14
31 34 36 38 38 41 42 44 45 44 41 40 41 40 39 37 34 33 31 28 26 26 27 27 29 33 33 34 35 35 35 34 34 31 28 26 24 21 21 19 16 14 12 15
Wind_Direction
326 330 343 354 353 349 349 345 347 348 349 346 321 333 344 13 10 358 349 346 345 343 342 338 338 341 343 344 343 343 342 343 343 343 344 343 341 339 338 337 338 339 342 347
323 321 325 334 335 333 330 333 331 335 337 346 360 3 2 354 348 343 342 342 342 340 339 339 341 341 342 341 341 342 341 341 342 344 343 343 341 340 341 342 345 347 351 350
313 320 323 323 316 323 332 336 337 333 337 350 345 337 335 337 336 338 339 339 339 338 340 341 341 342 340 340 341 340 340 341 343 343 342 342 342 342 343 343 351 354 355 359
313 322 312 324 327 320 320 326 328 330 335 337 339 346 343 340 335 334 336 337 338 340 342 342 342 341 340 340 340 340 341 341 341 341 340 341 343 345 348 354 352 353 359 359
308 308 315 321 319 317 318 320 323 328 336 337 342 341 332 333 335 334 335 336 340 343 342 342 341 340 340 340 342 342 341 341 341 341 341 342 343 346 350 352 352 359 359 358
310 307 309 322 322 325 325 314 321 328 329 330 336 323 324 324 333 334 337 340 342 344 344 341 340 341 342 342 342 341 341 341 341 342 343 344 345 347 352 353 1 1 359 357
301 303 310 312 319 327 313 321 334 329 327 324 319 326 338 340 334 337 341 342 346 344 340 341 343 343 341 341 340 342 342 342 343 345 345 346 348 351 355 1 1 360 355 357
307 305 305 314 314 308 319 326 323 322 322 315 320 331 334 337 337 339 340 342 343 341 340 342 342 341 340 340 341 341 340 341 344 346 348 352 356 0 2 360 357 357 356 357
302 311 318 309 312 308 316 317 315 315 320 319 322 326 332 333 338 339 341 341 342 341 340 341 342 342 340 341 342 340 339 340 344 348 351 353 355 356 356 357 356 356 356 358
310 311 306 308 302 312 313 311 316 316 319 322 325 329 334 331 338 340 341 340 341 339 338 339 341 341 340 340 341 341 339 340 345 348 350 352 354 357 356 354 353 354 356 359
306 308 308 309 308 307 308 312 316 320 319 320 324 324 334 336 338 339 339 339 339 338 338 338 341 341 341 340 341 343 343 342 343 347 351 355 358 358 354 353 354 354 357 2
305 311 311 314 318 315 311 309 314 318 321 325 328 330 339 339 340 339 338 338 338 338 338 339 340 340 340 342 341 342 342 342 342 346 349 354 356 354 355 354 356 359 1 6
309 315 314 316 317 317 314 315 319 321 326 333 337 339 341 339 339 339 338 338 338 338 339 339 338 338 339 341 340 340 343 343 346 348 348 350 353 352 352 356 357 359 1 10
313 316 315 317 318 317 322 324 329 334 339 339 340 340 339 338 338 337 337 338 339 339 339 338 338 338 340 340 341 340 343 344 345 346 346 344 348 351 354 354 354 357 3 8
314 315 316 319 323 321 325 330 331 330 334 337 339 338 338 335 335 336 338 339 340 339 339 339 339 338 340 341 342 342 344 345 345 345 344 348 347 349 352 354 354 358 2 5
322 319 320 320 323 325 328 332 327 330 332 335 335 335 334 336 336 337 338 339 339 338 339 339 340 341 343 344 344 344 344 344 344 344 349 350 347 345 347 352 354 357 359 3
322 321 323 325 326 329 327 337 336 333 329 327 330 333 335 335 336 337 338 340 340 341 342 343 344 345 346 346 345 344 345 343 343 344 346 346 345 344 346 351 353 356 358 1
330 334 336 337 340 347 344 338 333 329 327 329 332 333 333 333 334 336 338 340 341 342 344 344 345 347 347 345 342 340 339 342 339 340 344 347 351 355 352 348 345 349 356 358
351 354 356 360 354 343 339 334 331 331 332 331 331 330 332 333 334 335 338 340 342 342 344 346 347 348 347 347 346 344 342 341 336 333 339 346 348 353 351 345 344 340 345 350
2 1 357 350 345 339 333 333 333 331 331 330 331 331 330 331 332 333 336 337 341 341 343 344 345 345 347 348 348 347 348 346 340 330 333 339 341 343 346 343 338 336 332 335
352 349 344 341 338 335 333 332 331 330 330 329 329 329 330 331 332 333 333 332 338 342 343 342 341 342 344 347 348 348 350 349 345 325 325 322 325 330 333 339 335 331 328 327
339 337 337 337 335 333 333 332 331 330 330 330 330 330 330 331 331 329 330 329 335 338 340 340 341 341 343 345 346 346 346 346 342 333 320 316 314 314 319 325 331 331 325 322
335 334 333 332 331 331 332 332 332 331 329 329 330 331 330 329 329 327 327 334 334 336 338 339 340 339 340 343 344 343 339 339 336 331 322 316 312 309 308 309 312 321 323 319
331 329 329 329 329 329 328 329 331 333 333 332 332 332 331 330 330 330 329 331 332 334 336 339 339 335 335 337 341 341 340 337 334 331 328 323 318 314 306 300 297 302 308 312
329 329 329 329 329 329 331 331 330 330 330 329 330 330 330 330 327 329 329 329 330 333 336 339 338 334 336 335 336 338 339 339 338 334 329 325 322 319 315 309 302 298 304 311
335 334 334 334 332 331 330 329 327 327 327 326 327 329 330 330 328 326 326 326 330 333 337 339 339 336 335 332 331 331 332 335 337 336 334 329 323 320 318 313 307 300 298 312
337 336 333 331 331 330 328 327 326 325 327 327 326 329 330 331 331 330 330 330 334 337 340 342 339 335 335 333 331 331 333 334 334 335 334 333 332 326 321 317 313 310 309 317